Wetbulb
55.05 53.48 53.15 52.37 51.16 50.08 49.72 49.88 50.60 50.24 50.96 50.55 50.96 50.98 51.85 50.94 50.28 51.29 50.35 49.26 48.98 48.79
52.36 51.88 51.07 50.47 50.36 49.95 49.59 49.52 49.90 49.48 48.59 48.79 48.68 48.68 48.32 47.74 46.46 47.33 47.51 46.98 47.11 47.33
51.27 50.70 49.74 49.04 48.36 48.46 48.61 48.91 48.54 48.25 47.63 47.13 47.13 47.25 46.59 45.55 45.99 45.94 45.32 45.90 45.42 45.02
49.87 49.59 49.07 48.58 48.50 48.17 48.21 48.43 47.58 47.22 46.55 46.05 45.14 45.15 44.57 44.51 44.43 44.47 43.41 43.59 44.11 43.13
49.79 48.89 48.08 47.74 47.54 47.09 47.16 47.24 46.77 46.27 45.65 44.95 44.22 43.55 43.17 42.80 42.78 42.54 41.31 40.95 40.99 40.61
48.88 48.14 47.45 47.18 47.20 46.81 46.68 46.19 45.73 45.24 44.54 43.66 42.52 41.12 40.97 41.50 40.74 40.26 39.87 38.41 38.33 37.39
48.64 48.31 47.61 46.86 46.70 46.61 46.38 45.19 44.58 44.56 44.08 42.95 41.59 41.04 40.42 39.66 38.86 38.71 37.49 37.09 36.13 35.45
49.12 48.83 48.17 46.86 46.72 46.65 46.04 45.56 45.10 43.95 42.95 42.43 41.52 40.57 39.65 39.15 37.96 36.84 35.00 34.11 33.88 33.53
48.62 48.35 48.17 47.43 46.64 46.41 45.91 44.98 44.32 42.81 42.03 40.42 41.36 39.00 38.52 38.31 36.13 35.43 33.39 31.65 31.77 33.59
49.18 48.44 47.87 47.74 46.77 45.70 44.69 44.28 43.43 42.87 41.46 40.38 40.43 37.91 38.26 37.14 35.80 34.04 32.29 31.21 31.29 30.45
48.39 48.10 48.01 47.29 46.28 45.76 45.83 43.41 43.11 42.27 40.35 39.32 36.93 37.47 37.39 35.84 34.20 32.83 31.87 31.50 30.61 29.59
44.56 47.52 48.01 45.99 40.26 45.20 44.80 43.46 39.17 35.91 38.05 36.81 35.00 37.14 36.65 35.45 33.53 31.83 30.12 29.13 26.97 26.49
41.19 42.94 40.98 46.61 45.76 39.71 44.57 41.98 40.98 37.88 36.99 37.33 35.72 36.87 36.79 35.41 33.56 30.96 28.67 25.18 25.48 30.08
37.87 40.03 43.44 42.49 43.23 43.50 39.71 40.26 36.99 36.99 35.72 36.09 36.58 35.34 37.12 36.19 33.79 32.56 29.07 27.12 26.37 26.15
MSLP
1011.07 1011.51 1011.92 1012.24 1012.80 1013.27 1013.61 1013.87 1014.01 1014.18 1014.32 1014.32 1014.57 1014.92 1015.48 1015.73 1015.68 1016.40 1016.65 1016.88 1017.08 1017.62
1011.76 1012.01 1012.16 1012.46 1012.91 1013.29 1013.89 1014.05 1014.55 1014.56 1014.75 1014.87 1015.43 1015.56 1015.72 1015.83 1016.59 1016.75 1017.18 1017.43 1017.00 1017.81
1011.72 1012.26 1012.74 1012.98 1013.18 1013.34 1013.53 1013.81 1014.18 1014.40 1014.78 1014.84 1015.08 1015.26 1015.48 1015.87 1016.56 1016.76 1017.47 1017.56 1017.83 1017.78
1011.79 1011.93 1012.09 1012.35 1012.83 1013.24 1013.26 1013.32 1013.87 1014.39 1014.61 1014.92 1015.20 1015.70 1015.80 1016.26 1016.65 1016.96 1017.80 1018.00 1018.55 1018.89
1011.92 1012.35 1012.67 1012.79 1013.06 1013.41 1013.43 1013.77 1014.00 1014.47 1014.87 1015.05 1015.37 1015.90 1016.34 1016.70 1016.77 1017.09 1017.79 1018.11 1019.03 1019.66
1012.41 1012.74 1012.87 1013.34 1013.47 1013.50 1013.74 1013.99 1014.43 1014.46 1014.72 1015.38 1015.82 1016.23 1016.48 1016.80 1017.27 1017.78 1018.09 1018.74 1019.21 1019.81
1012.67 1012.54 1012.58 1012.75 1013.15 1013.48 1013.39 1013.72 1014.01 1014.32 1014.69 1015.11 1015.68 1016.05 1016.46 1017.02 1017.58 1017.57 1018.41 1019.09 1019.11 1019.89
1012.77 1013.07 1013.26 1012.92 1013.05 1012.96 1013.03 1013.21 1013.48 1013.87 1014.42 1014.96 1015.53 1016.22 1016.17 1016.88 1016.99 1018.07 1018.38 1019.35 1019.81 1019.83
1011.79 1012.38 1012.75 1012.93 1012.80 1012.83 1012.95 1012.91 1013.23 1013.52 1014.18 1014.52 1014.98 1015.07 1016.00 1016.63 1016.94 1017.85 1018.39 1018.99 1019.81 1020.12
1011.62 1011.31 1011.31 1011.84 1012.27 1012.42 1012.52 1012.45 1012.71 1012.86 1013.09 1013.90 1014.81 1014.91 1015.20 1015.81 1016.71 1016.89 1018.22 1018.91 1019.81 1020.34
1011.46 1011.48 1011.30 1011.39 1011.33 1011.55 1011.63 1011.71 1011.65 1012.19 1012.64 1013.40 1013.88 1014.73 1015.57 1015.90 1016.73 1017.19 1018.18 1018.70 1019.15 1020.34
1010.82 1011.08 1011.06 1010.88 1011.03 1010.81 1011.05 1011.30 1011.65 1011.69 1012.38 1012.61 1013.27 1013.38 1014.30 1015.14 1016.14 1016.70 1017.65 1018.77 1019.17 1020.04
1010.56 1010.48 1010.49 1010.38 1010.24 1010.33 1010.27 1010.00 1010.62 1011.23 1011.06 1011.63 1012.04 1012.75 1013.25 1014.36 1015.25 1016.08 1017.39 1018.81 1019.16 1019.58
1010.15 1010.01 1009.63 1009.66 1009.84 1010.08 1009.98 1009.99 1009.96 1010.28 1010.48 1010.82 1011.20 1011.83 1012.85 1013.37 1014.40 1015.28 1017.18 1018.11 1019.25 1019.62
Wind_Speed
4 3 3 4 4 4 3 4 4 3 4 6 5 4 3 2 4 2 3 8 6 4
3 2 3 4 3 3 3 4 2 4 3 5 4 4 4 5 4 5 4 4 6 4
4 3 3 3 4 5 5 6 6 6 5 6 7 8 6 5 4 5 3 3 6 5
4 5 6 5 5 5 6 7 7 6 7 6 6 5 6 5 5 7 4 4 6 3
4 4 4 4 4 4 5 6 6 6 6 5 6 5 5 6 6 7 6 6 5 4
3 3 4 4 4 5 6 6 5 7 7 5 4 5 4 5 6 5 5 4 5 5
4 5 6 6 6 6 7 7 7 7 7 7 7 7 7 6 5 6 6 4 6 6
4 4 5 6 7 8 9 9 9 8 6 7 7 6 8 7 8 7 7 5 4 5
8 8 8 7 8 9 10 8 8 8 8 9 7 13 14 10 9 8 8 8 5 5
7 10 12 11 10 10 10 9 12 11 12 11 9 15 17 15 8 10 9 9 7 4
6 8 9 10 12 12 11 13 12 12 11 10 7 15 16 15 9 7 8 10 10 7
6 7 9 10 9 11 9 10 9 7 11 13 11 22 23 19 12 10 10 7 7 7
6 7 8 12 13 9 11 12 10 11 13 16 13 22 25 18 9 11 9 5 5 14
7 8 10 9 8 8 10 9 10 12 11 11 14 15 25 23 12 10 9 8 7 6
Wind_Direction
96 125 133 149 150 166 177 155 159 154 149 128 128 128 138 127 115 124 155 156 144 139
69 110 155 147 134 133 143 145 211 154 138 94 73 78 107 116 127 118 127 143 123 133
131 104 97 114 146 162 162 159 160 154 146 134 140 149 136 124 126 110 118 110 117 118
148 157 162 165 168 171 158 158 162 161 156 146 128 128 123 124 129 128 118 114 137 114
143 145 159 171 166 155 156 155 154 148 142 136 132 125 125 144 155 147 141 131 127 136
137 162 175 186 174 162 152 147 147 146 147 151 151 139 123 134 134 135 122 142 149 147
213 208 194 178 178 177 168 163 162 168 162 161 157 155 150 144 135 130 139 157 146 160
264 255 226 198 193 182 181 183 179 162 153 156 165 177 160 162 150 153 134 133 147 149
199 206 224 214 200 195 194 182 167 170 180 178 188 171 166 159 147 149 147 139 138 149
231 216 206 205 201 200 190 179 197 189 179 193 203 181 168 158 160 149 149 142 145 136
239 232 221 213 205 207 204 204 199 197 187 183 175 170 168 154 146 138 149 161 157 169
261 250 236 224 223 216 212 211 208 185 184 180 186 175 171 162 164 156 159 161 151 153
265 255 240 236 231 221 221 208 203 214 194 200 191 190 175 165 161 157 153 157 165 176
258 253 248 239 238 242 225 230 210 213 201 201 198 186 182 169 166 163 159 165 177 177